Year,Month,Day,Hour,Minute,Value (Times are PST for temperature in C)
2016,04,15,00,00,7.80
2016,04,15,00,01,7.80
2016,04,15,00,02,7.80
2016,04,15,00,03,7.80
2016,04,15,00,04,7.80
2016,04,15,00,05,7.80
2016,04,15,00,06,7.70
2016,04,15,00,07,7.70
2016,04,15,00,08,7.70
2016,04,15,00,09,7.70
2016,04,15,00,10,7.70
2016,04,15,00,11,7.70
2016,04,15,00,12,7.70
2016,04,15,00,13,7.70
2016,04,15,00,14,7.60
2016,04,15,00,15,7.60
2016,04,15,00,16,7.60
2016,04,15,00,17,7.60
2016,04,15,00,18,7.60
2016,04,15,00,19,7.60
2016,04,15,00,20,7.60
2016,04,15,00,21,7.60
2016,04,15,00,22,7.50
2016,04,15,00,23,7.50
2016,04,15,00,24,7.50
2016,04,15,00,25,7.50
2016,04,15,00,26,7.50
2016,04,15,00,27,7.50
2016,04,15,00,28,7.50
2016,04,15,00,29,7.50
2016,04,15,00,30,7.50
2016,04,15,00,31,7.50
2016,04,15,00,32,7.50
2016,04,15,00,33,7.50
2016,04,15,00,34,7.50
2016,04,15,00,35,7.50
2016,04,15,00,36,7.50
2016,04,15,00,37,7.50
2016,04,15,00,38,7.40
2016,04,15,00,39,7.40
2016,04,15,00,40,7.40
2016,04,15,00,41,7.40
2016,04,15,00,42,7.30
2016,04,15,00,43,7.30
2016,04,15,00,44,7.30
2016,04,15,00,45,7.30
2016,04,15,00,46,7.30
2016,04,15,00,47,7.30
2016,04,15,00,48,7.30
2016,04,15,00,49,7.30
2016,04,15,00,50,7.20
2016,04,15,00,51,7.30
2016,04,15,00,52,7.20
2016,04,15,00,53,7.20
2016,04,15,00,54,7.20
2016,04,15,00,55,7.20
2016,04,15,00,56,7.20
2016,04,15,00,57,7.20
2016,04,15,00,58,7.20
2016,04,15,00,59,7.20
2016,04,15,01,00,7.20
2016,04,15,01,01,7.20
2016,04,15,01,02,7.20
2016,04,15,01,03,7.20
2016,04,15,01,04,7.20
2016,04,15,01,05,7.20
2016,04,15,01,06,7.20
2016,04,15,01,07,7.20
2016,04,15,01,08,7.20
2016,04,15,01,09,7.20
2016,04,15,01,10,7.10
2016,04,15,01,11,7.10
2016,04,15,01,12,7.10
2016,04,15,01,13,7.10
2016,04,15,01,14,7.10
2016,04,15,01,15,7.10
2016,04,15,01,16,7.10
2016,04,15,01,17,7.10
2016,04,15,01,18,7.10
2016,04,15,01,19,7.10
2016,04,15,01,20,7.10
2016,04,15,01,21,7.10
2016,04,15,01,22,7.10
2016,04,15,01,23,7.10
2016,04,15,01,24,7.10
2016,04,15,01,25,7.10
2016,04,15,01,26,7.00
2016,04,15,01,27,7.00
2016,04,15,01,28,7.00
2016,04,15,01,29,7.00
2016,04,15,01,30,7.00
2016,04,15,01,31,7.00
2016,04,15,01,32,6.90
2016,04,15,01,33,6.90
2016,04,15,01,34,6.90
2016,04,15,01,35,6.90
2016,04,15,01,36,6.90
2016,04,15,01,37,6.90
2016,04,15,01,38,6.80
2016,04,15,01,39,6.80
2016,04,15,01,40,6.80
2016,04,15,01,41,6.80
2016,04,15,01,42,6.80
2016,04,15,01,43,6.80
2016,04,15,01,44,6.80
2016,04,15,01,45,6.80
2016,04,15,01,46,6.80
2016,04,15,01,47,6.80
2016,04,15,01,48,6.80
2016,04,15,01,49,6.80
2016,04,15,01,50,6.80
2016,04,15,01,51,6.80
2016,04,15,01,52,6.80
2016,04,15,01,53,6.80
2016,04,15,01,54,6.70
2016,04,15,01,55,6.70
2016,04,15,01,56,6.70
2016,04,15,01,57,6.70
2016,04,15,01,58,6.70
2016,04,15,01,59,6.70
2016,04,15,02,00,6.70
2016,04,15,02,01,6.70
2016,04,15,02,02,6.70
2016,04,15,02,03,6.70
2016,04,15,02,04,6.70
2016,04,15,02,05,6.70
2016,04,15,02,06,6.70
2016,04,15,02,07,6.70
2016,04,15,02,08,6.60
2016,04,15,02,09,6.60
2016,04,15,02,10,6.60
2016,04,15,02,11,6.60
2016,04,15,02,12,6.70
2016,04,15,02,13,6.60
2016,04,15,02,14,6.70
2016,04,15,02,15,6.60
2016,04,15,02,16,6.60
2016,04,15,02,17,6.60
2016,04,15,02,18,6.60
2016,04,15,02,19,6.60
2016,04,15,02,20,6.60
2016,04,15,02,21,6.60
2016,04,15,02,22,6.60
2016,04,15,02,23,6.60
2016,04,15,02,24,6.60
2016,04,15,02,25,6.60
2016,04,15,02,26,6.60
2016,04,15,02,27,6.60
2016,04,15,02,28,6.60
2016,04,15,02,29,6.60
2016,04,15,02,30,6.60
2016,04,15,02,31,6.60
2016,04,15,02,32,6.60
2016,04,15,02,33,6.60
2016,04,15,02,34,6.60
2016,04,15,02,35,6.50
2016,04,15,02,36,6.50
2016,04,15,02,37,6.50
2016,04,15,02,38,6.50
2016,04,15,02,39,6.50
2016,04,15,02,40,6.40
2016,04,15,02,41,6.40
2016,04,15,02,42,6.40
2016,04,15,02,43,6.40
2016,04,15,02,44,6.40
2016,04,15,02,45,6.40
2016,04,15,02,46,6.40
2016,04,15,02,47,6.40
2016,04,15,02,48,6.50
2016,04,15,02,49,6.50
2016,04,15,02,50,6.50
2016,04,15,02,51,6.50
2016,04,15,02,52,6.50
2016,04,15,02,53,6.50
2016,04,15,02,54,6.50
2016,04,15,02,55,6.50
2016,04,15,02,56,6.50
2016,04,15,02,57,6.50
2016,04,15,02,58,6.40
2016,04,15,02,59,6.40
2016,04,15,03,00,6.40
2016,04,15,03,01,6.40
2016,04,15,03,02,6.40
2016,04,15,03,03,6.40
2016,04,15,03,04,6.40
2016,04,15,03,05,6.40
2016,04,15,03,06,6.30
2016,04,15,03,07,6.30
2016,04,15,03,08,6.30
2016,04,15,03,09,6.30
2016,04,15,03,10,6.30
2016,04,15,03,11,6.30
2016,04,15,03,12,6.30
2016,04,15,03,13,6.30
2016,04,15,03,14,6.30
2016,04,15,03,15,6.30
2016,04,15,03,16,6.30
2016,04,15,03,17,6.30
2016,04,15,03,18,6.30
2016,04,15,03,19,6.30
2016,04,15,03,20,6.30
2016,04,15,03,21,6.30
2016,04,15,03,22,6.30
2016,04,15,03,23,6.30
2016,04,15,03,24,6.30
2016,04,15,03,25,6.30
2016,04,15,03,26,6.30
2016,04,15,03,27,6.30
2016,04,15,03,28,6.30
2016,04,15,03,29,6.30
2016,04,15,03,30,6.30
2016,04,15,03,31,6.30
2016,04,15,03,32,6.30
2016,04,15,03,33,6.30
2016,04,15,03,34,6.30
2016,04,15,03,35,6.30
2016,04,15,03,36,6.30
2016,04,15,03,37,6.30
2016,04,15,03,38,6.30
2016,04,15,03,39,6.40
2016,04,15,03,40,6.40
2016,04,15,03,41,6.40
2016,04,15,03,42,6.40
2016,04,15,03,43,6.50
2016,04,15,03,44,6.60
2016,04,15,03,45,6.70
2016,04,15,03,46,6.70
2016,04,15,03,47,6.80
2016,04,15,03,48,6.80
2016,04,15,03,49,6.80
2016,04,15,03,50,6.80
2016,04,15,03,51,6.80
2016,04,15,03,52,6.90
2016,04,15,03,53,6.90
2016,04,15,03,54,6.90
2016,04,15,03,55,6.90
2016,04,15,03,56,6.90
2016,04,15,03,57,7.00
2016,04,15,03,58,7.00
2016,04,15,03,59,7.00
2016,04,15,04,00,7.00
2016,04,15,04,01,7.00
2016,04,15,04,02,7.10
2016,04,15,04,03,7.10
2016,04,15,04,04,7.10
2016,04,15,04,05,7.10
2016,04,15,04,06,7.10
2016,04,15,04,07,7.10
2016,04,15,04,08,7.10
2016,04,15,04,09,7.10
2016,04,15,04,10,7.10
2016,04,15,04,11,7.10
2016,04,15,04,12,7.10
2016,04,15,04,13,7.10
2016,04,15,04,14,7.10
2016,04,15,04,15,7.10
2016,04,15,04,16,7.10
2016,04,15,04,17,7.10
2016,04,15,04,18,7.10
2016,04,15,04,19,7.10
2016,04,15,04,20,7.10
2016,04,15,04,21,7.10
2016,04,15,04,22,7.10
2016,04,15,04,23,7.10
2016,04,15,04,24,7.10
2016,04,15,04,25,7.10
2016,04,15,04,26,7.10
2016,04,15,04,27,7.10
2016,04,15,04,28,7.10
2016,04,15,04,29,7.10
2016,04,15,04,30,7.20
2016,04,15,04,31,7.20
2016,04,15,04,32,7.20
2016,04,15,04,33,7.20
2016,04,15,04,34,7.20
2016,04,15,04,35,7.20
2016,04,15,04,36,7.20
2016,04,15,04,37,7.20
2016,04,15,04,38,7.20
2016,04,15,04,39,7.30
2016,04,15,04,40,7.30
2016,04,15,04,41,7.30
2016,04,15,04,42,7.30
2016,04,15,04,43,7.30
2016,04,15,04,44,7.30
2016,04,15,04,45,7.30
2016,04,15,04,46,7.30
2016,04,15,04,47,7.30
2016,04,15,04,48,7.40
2016,04,15,04,49,7.40
2016,04,15,04,50,7.40
2016,04,15,04,51,7.40
2016,04,15,04,52,7.40
2016,04,15,04,53,7.40
2016,04,15,04,54,7.40
2016,04,15,04,55,7.40
2016,04,15,04,56,7.40
2016,04,15,04,57,7.50
2016,04,15,04,58,7.50
2016,04,15,04,59,7.50
2016,04,15,05,00,7.50
2016,04,15,05,01,7.50
2016,04,15,05,02,7.50
2016,04,15,05,03,7.50
2016,04,15,05,04,7.60
2016,04,15,05,05,7.60
2016,04,15,05,06,7.60
2016,04,15,05,07,7.60
2016,04,15,05,08,7.60
2016,04,15,05,09,7.70
2016,04,15,05,10,7.70
2016,04,15,05,11,7.70
2016,04,15,05,12,7.70
2016,04,15,05,13,7.80
2016,04,15,05,14,7.80
2016,04,15,05,15,7.80
2016,04,15,05,16,7.80
2016,04,15,05,17,7.90
2016,04,15,05,18,7.90
2016,04,15,05,19,7.90
2016,04,15,05,20,7.90
2016,04,15,05,21,8.00
2016,04,15,05,22,8.00
2016,04,15,05,23,8.00
2016,04,15,05,24,8.10
2016,04,15,05,25,8.10
2016,04,15,05,26,8.10
2016,04,15,05,27,8.10
2016,04,15,05,28,8.10
2016,04,15,05,29,8.10
2016,04,15,05,30,8.20
2016,04,15,05,31,8.20
2016,04,15,05,32,8.20
2016,04,15,05,33,8.20
2016,04,15,05,34,8.20
2016,04,15,05,35,8.20
2016,04,15,05,36,8.20
2016,04,15,05,37,8.20
2016,04,15,05,38,8.20
2016,04,15,05,39,8.20
2016,04,15,05,40,8.30
2016,04,15,05,41,8.30
2016,04,15,05,42,8.30
2016,04,15,05,43,8.30
2016,04,15,05,44,8.30
2016,04,15,05,45,8.30
2016,04,15,05,46,8.30
2016,04,15,05,47,8.30
2016,04,15,05,48,8.30
2016,04,15,05,49,8.30
2016,04,15,05,50,8.40
2016,04,15,05,51,8.40
2016,04,15,05,52,8.40
2016,04,15,05,53,8.40
2016,04,15,05,54,8.40
2016,04,15,05,55,8.40
2016,04,15,05,56,8.40
2016,04,15,05,57,8.40
2016,04,15,05,58,8.40
2016,04,15,05,59,8.50
2016,04,15,06,00,8.50
2016,04,15,06,01,8.50
2016,04,15,06,02,8.50
2016,04,15,06,03,8.50
2016,04,15,06,04,8.50
2016,04,15,06,05,8.50
2016,04,15,06,06,8.50
2016,04,15,06,07,8.50
2016,04,15,06,08,8.50
2016,04,15,06,09,8.50
2016,04,15,06,10,8.60
2016,04,15,06,11,8.60
2016,04,15,06,12,8.60
2016,04,15,06,13,8.60
2016,04,15,06,14,8.60
2016,04,15,06,15,8.60
2016,04,15,06,16,8.60
2016,04,15,06,17,8.60
2016,04,15,06,18,8.60
2016,04,15,06,19,8.60
2016,04,15,06,20,8.60
2016,04,15,06,21,8.60
2016,04,15,06,22,8.60
2016,04,15,06,23,8.60
2016,04,15,06,24,8.60
2016,04,15,06,25,8.60
2016,04,15,06,26,8.60
2016,04,15,06,27,8.60
2016,04,15,06,28,8.60
2016,04,15,06,29,8.60
2016,04,15,06,30,8.60
2016,04,15,06,31,8.60
2016,04,15,06,32,8.60
2016,04,15,06,33,8.60
2016,04,15,06,34,8.60
2016,04,15,06,35,8.60
2016,04,15,06,36,8.60
2016,04,15,06,37,8.60
2016,04,15,06,38,8.60
2016,04,15,06,39,8.60
2016,04,15,06,40,8.60
2016,04,15,06,41,8.60
2016,04,15,06,42,8.60
2016,04,15,06,43,8.60
2016,04,15,06,44,8.60
2016,04,15,06,45,8.60
2016,04,15,06,46,8.70
2016,04,15,06,47,8.70
2016,04,15,06,48,8.70
2016,04,15,06,49,8.70
2016,04,15,06,50,8.70
2016,04,15,06,51,8.70
2016,04,15,06,52,8.70
2016,04,15,06,53,8.70
2016,04,15,06,54,8.70
2016,04,15,06,55,8.70
2016,04,15,06,56,8.70
2016,04,15,06,57,8.70
2016,04,15,06,58,8.70
2016,04,15,06,59,8.70
2016,04,15,07,00,8.70
2016,04,15,07,01,8.70
2016,04,15,07,02,8.70
2016,04,15,07,03,8.70
2016,04,15,07,04,8.70
2016,04,15,07,05,8.70
2016,04,15,07,06,8.70
2016,04,15,07,07,8.60
2016,04,15,07,08,8.60
2016,04,15,07,09,8.70
2016,04,15,07,10,8.70
2016,04,15,07,11,8.70
2016,04,15,07,12,8.70
2016,04,15,07,13,8.70
2016,04,15,07,14,8.70
2016,04,15,07,15,8.70
2016,04,15,07,16,8.70
2016,04,15,07,17,8.70
2016,04,15,07,18,8.70
2016,04,15,07,19,8.70
2016,04,15,07,20,8.70
2016,04,15,07,21,8.70
2016,04,15,07,22,8.70
2016,04,15,07,23,8.70
2016,04,15,07,24,8.70
2016,04,15,07,25,8.70
2016,04,15,07,26,8.70
2016,04,15,07,27,8.70
2016,04,15,07,28,8.70
2016,04,15,07,29,8.70
2016,04,15,07,30,8.70
2016,04,15,07,31,8.60
2016,04,15,07,32,8.60
2016,04,15,07,33,8.60
2016,04,15,07,34,8.60
2016,04,15,07,35,8.60
2016,04,15,07,36,8.60
2016,04,15,07,37,8.60
2016,04,15,07,38,8.60
2016,04,15,07,39,8.60
2016,04,15,07,40,8.60
2016,04,15,07,41,8.60
2016,04,15,07,42,8.60
2016,04,15,07,43,8.60
2016,04,15,07,44,8.60
2016,04,15,07,45,8.60
2016,04,15,07,46,8.60
2016,04,15,07,47,8.70
2016,04,15,07,48,8.70
2016,04,15,07,49,8.70
2016,04,15,07,50,8.70
2016,04,15,07,51,8.70
2016,04,15,07,52,8.70
2016,04,15,07,53,8.70
2016,04,15,07,54,8.70
2016,04,15,07,55,8.70
2016,04,15,07,56,8.70
2016,04,15,07,57,8.70
2016,04,15,07,58,8.70
2016,04,15,07,59,8.70
2016,04,15,08,00,8.70
2016,04,15,08,01,8.70
2016,04,15,08,02,8.70
2016,04,15,08,03,8.70
2016,04,15,08,04,8.70
2016,04,15,08,05,8.70
2016,04,15,08,06,8.70
2016,04,15,08,07,8.70
2016,04,15,08,08,8.70
2016,04,15,08,09,8.70
2016,04,15,08,10,8.70
2016,04,15,08,11,8.70
2016,04,15,08,12,8.70
2016,04,15,08,13,8.70
2016,04,15,08,14,8.70
2016,04,15,08,15,8.70
2016,04,15,08,16,8.70
2016,04,15,08,17,8.70
2016,04,15,08,18,8.70
2016,04,15,08,19,8.70
2016,04,15,08,20,8.70
2016,04,15,08,21,8.70
2016,04,15,08,22,8.70
2016,04,15,08,23,8.70
2016,04,15,08,24,8.70
2016,04,15,08,25,8.70
2016,04,15,08,26,8.70
2016,04,15,08,27,8.70
2016,04,15,08,28,8.70
2016,04,15,08,29,8.70
2016,04,15,08,30,8.70
2016,04,15,08,31,8.70
2016,04,15,08,32,8.70
2016,04,15,08,33,8.70
2016,04,15,08,34,8.70
2016,04,15,08,35,8.70
2016,04,15,08,36,8.70
2016,04,15,08,37,8.70
2016,04,15,08,38,8.70
2016,04,15,08,39,8.70
2016,04,15,08,40,8.70
2016,04,15,08,41,8.70
2016,04,15,08,42,8.70
2016,04,15,08,43,8.70
2016,04,15,08,44,8.70
2016,04,15,08,45,8.70
2016,04,15,08,46,8.70
2016,04,15,08,47,8.70
2016,04,15,08,48,8.70
2016,04,15,08,49,8.70
2016,04,15,08,50,8.70
2016,04,15,08,51,8.80
2016,04,15,08,52,8.80
2016,04,15,08,53,8.80
2016,04,15,08,54,8.80
2016,04,15,08,55,8.80
2016,04,15,08,56,8.80
2016,04,15,08,57,8.80
2016,04,15,08,58,8.80
2016,04,15,08,59,8.80
2016,04,15,09,00,8.90
2016,04,15,09,01,8.90
2016,04,15,09,02,8.90
2016,04,15,09,03,8.90
2016,04,15,09,04,9.00
2016,04,15,09,05,9.00
2016,04,15,09,06,9.00
2016,04,15,09,07,9.10
2016,04,15,09,08,9.10
2016,04,15,09,09,9.10
2016,04,15,09,10,9.10
2016,04,15,09,11,9.10
2016,04,15,09,12,9.10
2016,04,15,09,13,9.20
2016,04,15,09,14,9.20
2016,04,15,09,15,9.20
2016,04,15,09,16,9.20
2016,04,15,09,17,9.20
2016,04,15,09,18,9.20
2016,04,15,09,19,9.20
2016,04,15,09,20,9.20
2016,04,15,09,21,9.20
2016,04,15,09,22,9.20
2016,04,15,09,23,9.20
2016,04,15,09,24,9.20
2016,04,15,09,25,9.20
2016,04,15,09,26,9.20
2016,04,15,09,27,9.20
2016,04,15,09,28,9.20
2016,04,15,09,29,9.20
2016,04,15,09,30,9.20
2016,04,15,09,31,9.20
2016,04,15,09,32,9.20
2016,04,15,09,33,9.20
2016,04,15,09,34,9.30
2016,04,15,09,35,9.30
2016,04,15,09,36,9.30
2016,04,15,09,37,9.30
2016,04,15,09,38,9.30
2016,04,15,09,39,9.30
2016,04,15,09,40,9.30
2016,04,15,09,41,9.30
2016,04,15,09,42,9.30
2016,04,15,09,43,9.30
2016,04,15,09,44,9.30
2016,04,15,09,45,9.30
2016,04,15,09,46,9.30
2016,04,15,09,47,9.30
2016,04,15,09,48,9.30
2016,04,15,09,49,9.30
2016,04,15,09,50,9.30
2016,04,15,09,51,9.30
2016,04,15,09,52,9.30
2016,04,15,09,53,9.30
2016,04,15,09,54,9.30
2016,04,15,09,55,9.40
2016,04,15,09,56,9.40
2016,04,15,09,57,9.40
2016,04,15,09,58,9.40
2016,04,15,09,59,9.40
2016,04,15,10,00,9.40
2016,04,15,10,01,9.40
2016,04,15,10,02,9.50
2016,04,15,10,03,9.50
2016,04,15,10,04,9.50
2016,04,15,10,05,9.60
2016,04,15,10,06,9.60
2016,04,15,10,07,9.70
2016,04,15,10,08,9.70
2016,04,15,10,09,9.70
2016,04,15,10,10,9.70
2016,04,15,10,11,9.80
2016,04,15,10,12,9.80
2016,04,15,10,13,9.80
2016,04,15,10,14,9.80
2016,04,15,10,15,9.80
2016,04,15,10,16,9.80
2016,04,15,10,17,9.80
2016,04,15,10,18,9.80
2016,04,15,10,19,9.90
2016,04,15,10,20,9.90
2016,04,15,10,21,10.00
2016,04,15,10,22,10.00
2016,04,15,10,23,10.10
2016,04,15,10,24,10.10
2016,04,15,10,25,10.20
2016,04,15,10,26,10.30
2016,04,15,10,27,10.30
2016,04,15,10,28,10.40
2016,04,15,10,29,10.50
2016,04,15,10,30,10.60
2016,04,15,10,31,10.60
2016,04,15,10,32,10.70
2016,04,15,10,33,10.80
2016,04,15,10,34,10.90
2016,04,15,10,35,10.90
2016,04,15,10,36,11.00
2016,04,15,10,37,11.00
2016,04,15,10,38,11.10
2016,04,15,10,39,11.10
2016,04,15,10,40,11.10
2016,04,15,10,41,11.10
2016,04,15,10,42,11.10
2016,04,15,10,43,11.10
2016,04,15,10,44,11.20
2016,04,15,10,45,11.20
2016,04,15,10,46,11.30
2016,04,15,10,47,11.30
2016,04,15,10,48,11.30
2016,04,15,10,49,11.40
2016,04,15,10,50,11.40
2016,04,15,10,51,11.40
2016,04,15,10,52,11.40
2016,04,15,10,53,11.40
2016,04,15,10,54,11.40
2016,04,15,10,55,11.40
2016,04,15,10,56,11.40
2016,04,15,10,57,11.50
2016,04,15,10,58,11.50
2016,04,15,10,59,11.50
2016,04,15,11,00,11.50
2016,04,15,11,01,11.60
2016,04,15,11,02,11.50
2016,04,15,11,03,11.50
2016,04,15,11,04,11.40
2016,04,15,11,05,11.40
2016,04,15,11,06,11.40
2016,04,15,11,07,11.40
2016,04,15,11,08,11.40
2016,04,15,11,09,11.40
2016,04,15,11,10,11.40
2016,04,15,11,11,11.30
2016,04,15,11,12,11.30
2016,04,15,11,13,11.30
2016,04,15,11,14,11.30
2016,04,15,11,15,11.30
2016,04,15,11,16,11.20
2016,04,15,11,17,11.20
2016,04,15,11,18,11.20
2016,04,15,11,19,11.30
2016,04,15,11,20,11.30
2016,04,15,11,21,11.30
2016,04,15,11,22,11.40
2016,04,15,11,23,11.50
2016,04,15,11,24,11.50
2016,04,15,11,25,11.60
2016,04,15,11,26,11.60
2016,04,15,11,27,11.60
2016,04,15,11,28,11.60
2016,04,15,11,29,11.60
2016,04,15,11,30,11.50
2016,04,15,11,31,11.50
2016,04,15,11,32,11.40
2016,04,15,11,33,11.40
2016,04,15,11,34,11.40
2016,04,15,11,35,11.40
2016,04,15,11,36,11.40
2016,04,15,11,37,11.40
2016,04,15,11,38,11.40
2016,04,15,11,39,11.50
2016,04,15,11,40,11.50
2016,04,15,11,41,11.50
2016,04,15,11,42,11.50
2016,04,15,11,43,11.50
2016,04,15,11,44,11.50
2016,04,15,11,45,11.50
2016,04,15,11,46,11.60
2016,04,15,11,47,11.60
2016,04,15,11,48,11.70
2016,04,15,11,49,11.70
2016,04,15,11,50,11.70
2016,04,15,11,51,11.80
2016,04,15,11,52,11.80
2016,04,15,11,53,11.90
2016,04,15,11,54,12.00
2016,04,15,11,55,12.00
2016,04,15,11,56,12.10
2016,04,15,11,57,12.10
2016,04,15,11,58,12.10
2016,04,15,11,59,12.10
2016,04,15,12,00,12.10
2016,04,15,12,01,12.10
2016,04,15,12,02,12.10
2016,04,15,12,03,12.10
2016,04,15,12,04,12.20
2016,04,15,12,05,12.20
2016,04,15,12,06,12.20
2016,04,15,12,07,12.30
2016,04,15,12,08,12.30
2016,04,15,12,09,12.30
2016,04,15,12,10,12.40
2016,04,15,12,11,12.40
2016,04,15,12,12,12.40
2016,04,15,12,13,12.50
2016,04,15,12,14,12.50
2016,04,15,12,15,12.50
2016,04,15,12,16,12.50
2016,04,15,12,17,12.40
2016,04,15,12,18,12.40
2016,04,15,12,19,12.40
2016,04,15,12,20,12.40
2016,04,15,12,21,12.40
2016,04,15,12,22,12.40
2016,04,15,12,23,12.40
2016,04,15,12,24,12.40
2016,04,15,12,25,12.40
2016,04,15,12,26,12.50
2016,04,15,12,27,12.50
2016,04,15,12,28,12.50
2016,04,15,12,29,12.50
2016,04,15,12,30,12.60
2016,04,15,12,31,12.60
2016,04,15,12,32,12.60
2016,04,15,12,33,12.50
2016,04,15,12,34,12.50
2016,04,15,12,35,12.50
2016,04,15,12,36,12.50
2016,04,15,12,37,12.40
2016,04,15,12,38,12.30
2016,04,15,12,39,12.20
2016,04,15,12,40,12.20
2016,04,15,12,41,12.10
2016,04,15,12,42,12.10
2016,04,15,12,43,12.00
2016,04,15,12,44,12.10
2016,04,15,12,45,12.10
2016,04,15,12,46,12.10
2016,04,15,12,47,12.20
2016,04,15,12,48,12.20
2016,04,15,12,49,12.20
2016,04,15,12,50,12.20
2016,04,15,12,51,12.10
2016,04,15,12,52,12.00
2016,04,15,12,53,12.00
2016,04,15,12,54,11.90
2016,04,15,12,55,11.80
2016,04,15,12,56,11.80
2016,04,15,12,57,11.80
2016,04,15,12,58,11.70
2016,04,15,12,59,11.70
2016,04,15,13,00,11.70
2016,04,15,13,01,11.70
2016,04,15,13,02,11.60
2016,04,15,13,03,11.60
2016,04,15,13,04,11.60
2016,04,15,13,05,11.70
2016,04,15,13,06,11.60
2016,04,15,13,07,11.60
2016,04,15,13,08,11.60
2016,04,15,13,09,11.60
2016,04,15,13,10,11.60
2016,04,15,13,11,11.60
2016,04,15,13,12,11.60
2016,04,15,13,13,11.60
2016,04,15,13,14,11.60
2016,04,15,13,15,11.60
2016,04,15,13,16,11.60
2016,04,15,13,17,11.60
2016,04,15,13,18,11.60
2016,04,15,13,19,11.60
2016,04,15,13,20,11.50
2016,04,15,13,21,11.50
2016,04,15,13,22,11.50
2016,04,15,13,23,11.50
2016,04,15,13,24,11.40
2016,04,15,13,25,11.40
2016,04,15,13,26,11.40
2016,04,15,13,27,11.50
2016,04,15,13,28,11.50
2016,04,15,13,29,11.50
2016,04,15,13,30,11.50
2016,04,15,13,31,11.60
2016,04,15,13,32,11.60
2016,04,15,13,33,11.70
2016,04,15,13,34,11.70
2016,04,15,13,35,11.70
2016,04,15,13,36,11.80
2016,04,15,13,37,11.80
2016,04,15,13,38,11.90
2016,04,15,13,39,12.00
2016,04,15,13,40,12.10
2016,04,15,13,41,12.10
2016,04,15,13,42,12.10
2016,04,15,13,43,12.10
2016,04,15,13,44,12.10
2016,04,15,13,45,12.10
2016,04,15,13,46,12.10
2016,04,15,13,47,12.10
2016,04,15,13,48,12.00
2016,04,15,13,49,12.00
2016,04,15,13,50,12.00
2016,04,15,13,51,12.00
2016,04,15,13,52,12.00
2016,04,15,13,53,12.10
2016,04,15,13,54,12.10
2016,04,15,13,55,12.10
2016,04,15,13,56,12.20
2016,04,15,13,57,12.20
2016,04,15,13,58,12.20
2016,04,15,13,59,12.30
2016,04,15,14,00,12.30
2016,04,15,14,01,12.30
2016,04,15,14,02,12.30
2016,04,15,14,03,12.30
2016,04,15,14,04,12.40
2016,04,15,14,05,12.40
2016,04,15,14,06,12.40
2016,04,15,14,07,12.40
2016,04,15,14,08,12.30
2016,04,15,14,09,12.30
2016,04,15,14,10,12.30
2016,04,15,14,11,12.30
2016,04,15,14,12,12.30
2016,04,15,14,13,12.30
2016,04,15,14,14,12.30
2016,04,15,14,15,12.20
2016,04,15,14,16,12.20
2016,04,15,14,17,12.20
2016,04,15,14,18,12.20
2016,04,15,14,19,12.10
2016,04,15,14,20,12.00
2016,04,15,14,21,12.00
2016,04,15,14,22,12.00
2016,04,15,14,23,11.90
2016,04,15,14,24,11.90
2016,04,15,14,25,11.90
2016,04,15,14,26,12.00
2016,04,15,14,27,12.00
2016,04,15,14,28,12.10
2016,04,15,14,29,12.20
2016,04,15,14,30,12.30
2016,04,15,14,31,12.40
2016,04,15,14,32,12.50
2016,04,15,14,33,12.60
2016,04,15,14,34,12.70
2016,04,15,14,35,12.80
2016,04,15,14,36,12.90
2016,04,15,14,37,13.00
2016,04,15,14,38,13.00
2016,04,15,14,39,13.10
2016,04,15,14,40,13.20
2016,04,15,14,41,13.30
2016,04,15,14,42,13.30
2016,04,15,14,43,13.40
2016,04,15,14,44,13.40
2016,04,15,14,45,13.40
2016,04,15,14,46,13.40
2016,04,15,14,47,13.40
2016,04,15,14,48,13.30
2016,04,15,14,49,13.30
2016,04,15,14,50,13.30
2016,04,15,14,51,13.20
2016,04,15,14,52,13.20
2016,04,15,14,53,13.10
2016,04,15,14,54,13.10
2016,04,15,14,55,13.00
2016,04,15,14,56,12.90
2016,04,15,14,57,12.90
2016,04,15,14,58,12.80
2016,04,15,14,59,12.80
2016,04,15,15,00,12.70
2016,04,15,15,01,12.70
2016,04,15,15,02,12.70
2016,04,15,15,03,12.70
2016,04,15,15,04,12.60
2016,04,15,15,05,12.60
2016,04,15,15,06,12.50
2016,04,15,15,07,12.50
2016,04,15,15,08,12.40
2016,04,15,15,09,12.50
2016,04,15,15,10,12.50
2016,04,15,15,11,12.50
2016,04,15,15,12,12.40
2016,04,15,15,13,12.40
2016,04,15,15,14,12.40
2016,04,15,15,15,12.40
2016,04,15,15,16,12.40
2016,04,15,15,17,12.40
2016,04,15,15,18,12.40
2016,04,15,15,19,12.40
2016,04,15,15,20,12.50
2016,04,15,15,21,12.50
2016,04,15,15,22,12.60
2016,04,15,15,23,12.60
2016,04,15,15,24,12.60
2016,04,15,15,25,12.50
2016,04,15,15,26,12.40
2016,04,15,15,27,12.40
2016,04,15,15,28,12.40
2016,04,15,15,29,12.50
2016,04,15,15,30,12.50
2016,04,15,15,31,12.50
2016,04,15,15,32,12.50
2016,04,15,15,33,12.50
2016,04,15,15,34,12.40
2016,04,15,15,35,12.40
2016,04,15,15,36,12.40
2016,04,15,15,37,12.40
2016,04,15,15,38,12.40
2016,04,15,15,39,12.40
2016,04,15,15,40,12.50
2016,04,15,15,41,12.50
2016,04,15,15,42,12.50
2016,04,15,15,43,12.50
2016,04,15,15,44,12.60
2016,04,15,15,45,12.70
2016,04,15,15,46,12.70
2016,04,15,15,47,12.80
2016,04,15,15,48,12.80
2016,04,15,15,49,12.80
2016,04,15,15,50,12.90
2016,04,15,15,51,12.90
2016,04,15,15,52,13.00
2016,04,15,15,53,13.00
2016,04,15,15,54,13.00
2016,04,15,15,55,13.00
2016,04,15,15,56,13.10
2016,04,15,15,57,13.10
2016,04,15,15,58,13.10
2016,04,15,15,59,13.10
2016,04,15,16,00,13.10
2016,04,15,16,01,13.20
2016,04,15,16,02,13.20
2016,04,15,16,03,13.30
2016,04,15,16,04,13.30
2016,04,15,16,05,13.20
2016,04,15,16,06,13.20
2016,04,15,16,07,13.10
2016,04,15,16,08,13.00
2016,04,15,16,09,12.90
2016,04,15,16,10,12.80
2016,04,15,16,11,12.80
2016,04,15,16,12,12.70
2016,04,15,16,13,12.70
2016,04,15,16,14,12.70
2016,04,15,16,15,12.60
2016,04,15,16,16,12.60
2016,04,15,16,17,12.60
2016,04,15,16,18,12.60
2016,04,15,16,19,12.50
2016,04,15,16,20,12.50
2016,04,15,16,21,12.50
2016,04,15,16,22,12.40
2016,04,15,16,23,12.40
2016,04,15,16,24,12.40
2016,04,15,16,25,12.40
2016,04,15,16,26,12.50
2016,04,15,16,27,12.50
2016,04,15,16,28,12.60
2016,04,15,16,29,12.70
2016,04,15,16,30,12.80
2016,04,15,16,31,13.00
2016,04,15,16,32,13.00
2016,04,15,16,33,13.20
2016,04,15,16,34,13.30
2016,04,15,16,35,13.30
2016,04,15,16,36,13.40
2016,04,15,16,37,13.50
2016,04,15,16,38,13.50
2016,04,15,16,39,13.60
2016,04,15,16,40,13.60
2016,04,15,16,41,13.70
2016,04,15,16,42,13.70
2016,04,15,16,43,13.70
2016,04,15,16,44,13.70
2016,04,15,16,45,13.70
2016,04,15,16,46,13.80
2016,04,15,16,47,13.80
2016,04,15,16,48,13.80
2016,04,15,16,49,13.90
2016,04,15,16,50,13.90
2016,04,15,16,51,13.90
2016,04,15,16,52,13.90
2016,04,15,16,53,13.80
2016,04,15,16,54,13.80
2016,04,15,16,55,13.70
2016,04,15,16,56,13.70
2016,04,15,16,57,13.70
2016,04,15,16,58,13.70
2016,04,15,16,59,13.70
2016,04,15,17,00,13.70
2016,04,15,17,01,13.70
2016,04,15,17,02,13.70
2016,04,15,17,03,13.60
2016,04,15,17,04,13.40
2016,04,15,17,05,13.30
2016,04,15,17,06,13.10
2016,04,15,17,07,13.00
2016,04,15,17,08,12.90
2016,04,15,17,09,12.90
2016,04,15,17,10,12.80
2016,04,15,17,11,12.70
2016,04,15,17,12,12.70
2016,04,15,17,13,12.60
2016,04,15,17,14,12.60
2016,04,15,17,15,12.60
2016,04,15,17,16,12.60
2016,04,15,17,17,12.60
2016,04,15,17,18,12.50
2016,04,15,17,19,12.50
2016,04,15,17,20,12.40
2016,04,15,17,21,12.30
2016,04,15,17,22,12.30
2016,04,15,17,23,12.30
2016,04,15,17,24,12.30
2016,04,15,17,25,12.30
2016,04,15,17,26,12.30
2016,04,15,17,27,12.40
2016,04,15,17,28,12.40
2016,04,15,17,29,12.40
2016,04,15,17,30,12.40
2016,04,15,17,31,12.50
2016,04,15,17,32,12.40
2016,04,15,17,33,12.40
2016,04,15,17,34,12.40
2016,04,15,17,35,12.40
2016,04,15,17,36,12.40
2016,04,15,17,37,12.40
2016,04,15,17,38,12.40
2016,04,15,17,39,12.40
2016,04,15,17,40,12.50
2016,04,15,17,41,12.60
2016,04,15,17,42,12.60
2016,04,15,17,43,12.60
2016,04,15,17,44,12.60
2016,04,15,17,45,12.70
2016,04,15,17,46,12.70